Home > Weather > Rhodes > Past weeks

Flag for Greece Past Weather in Rhodes, Rhodes, Greece — Yesterday and Last 2 Weeks

Now
79 °F

Clear.


Feels Like: 81 °F
Forecast: 78 / 88 °F
Wind: 7 mph from West

Location: Rhodes Airport

Current Time: Jul 2, 2016 at 3:17:51 AM

Latest Report: Jul 2, 2016 at 2:20 AM


Visibility: 10 mi

Pressure: 29.77 "Hg

Humidity: 74%

Dew Point: 70 °F

Location of RhodesLocation

Past Weather in Rhodes — Graph

°F

Rhodes Temperature Yesterday

Maximum temperature yesterday: 86 °F (at 11:50 AM)
Minimum temperature yesterday: 77 °F (at 5:50 AM)
Average temperature yesterday: 82 °F

High & Low Weather Summary for the Past Weeks

 TemperatureHumidityPressure
High99 °F (Jun 18, 2:50 PM)89% (Jun 21, 6:50 AM)29.92 "Hg (Jun 21, 6:50 AM)
Low73 °F (Jun 19, 2:20 AM)18% (Jun 18, 2:50 PM)29.65 "Hg (Jun 25, 4:50 AM)
Average81 °F65%29.77 "Hg
* Reported Jun 17 1:20 AM — Jul 2 1:50 AM, Rhodes, Weather by CustomWeather, © 2016

Note: Actual official high and low records may vary slightly from our data, if they occured in-between our weather recording intervals... More about our weather records

Advertising

Rhodes Weather History for the Previous 24 Hours

Scroll right to see more
 ConditionsComfort  
Time TempWeatherWind HumidityBarometerVisibility
1:50 AM
Sat, Jul 2
79 °FClear.8 mph74%29.77 "Hg10 mi
1:20 AM79 °FClear.7 mph74%29.77 "Hg10 mi
12:50 AM79 °FClear.7 mph74%29.80 "Hg10 mi
12:20 AM79 °FClear.9 mph74%29.80 "Hg10 mi
11:50 PM
Fri, Jul 1
79 °FClear.9 mph74%29.80 "Hg10 mi
11:20 PM79 °FClear.9 mph74%29.80 "Hg10 mi
10:50 PM79 °FClear.9 mph74%29.80 "Hg10 mi
10:20 PM82 °FClear.8 mph58%29.80 "Hg10 mi
9:50 PM82 °FClear.8 mph58%29.80 "Hg10 mi
9:20 PM82 °FSunny.10 mph58%29.80 "Hg10 mi
8:50 PM82 °FSunny.12 mph58%29.80 "Hg10 mi
8:20 PM82 °FSunny.13 mph62%29.80 "Hg10 mi
7:50 PM84 °FSunny.15 mph58%29.80 "Hg10 mi
7:20 PM84 °FSunny.15 mph55%29.80 "Hg10 mi
6:50 PM84 °FSunny.17 mph55%29.80 "Hg10 mi
6:20 PM84 °FSunny.17 mph55%29.80 "Hg10 mi
5:50 PM84 °FSunny.16 mph55%29.80 "Hg10 mi
5:20 PM84 °FSunny.17 mph55%29.80 "Hg10 mi
4:50 PM84 °FSunny.17 mph55%29.80 "Hg10 mi
4:20 PM86 °FSunny.17 mph49%29.83 "Hg10 mi
3:50 PM86 °FSunny.18 mph49%29.83 "Hg10 mi
3:20 PM86 °FSunny.18 mph49%29.83 "Hg10 mi
2:50 PM86 °FPassing clouds.20 mph49%29.83 "HgN/A
2:20 PM86 °FPassing clouds.17 mph55%29.83 "HgN/A
1:50 PM86 °FPassing clouds.16 mph55%29.83 "HgN/A
1:20 PM84 °FSunny.16 mph55%29.83 "Hg10 mi
12:50 PM84 °FSunny.15 mph55%29.83 "Hg10 mi
12:20 PM86 °FSunny.15 mph52%29.83 "Hg10 mi
11:50 AM86 °FSunny.14 mph52%29.83 "Hg10 mi
11:20 AM84 °FSunny.13 mph51%29.83 "Hg10 mi
10:50 AM84 °FSunny.13 mph51%29.83 "Hg10 mi
10:20 AM82 °FSunny.10 mph58%29.83 "Hg10 mi
9:50 AM82 °FSunny.10 mph58%29.83 "Hg10 mi
9:20 AM82 °FSunny.10 mph62%29.83 "Hg10 mi
8:50 AM82 °FSunny.12 mph62%29.83 "Hg10 mi
8:20 AM79 °FSunny.10 mph65%29.83 "Hg10 mi
7:50 AM79 °FSunny.8 mph65%29.83 "Hg10 mi
7:20 AM77 °FSunny.8 mph69%29.80 "Hg10 mi
6:50 AM77 °FClear.8 mph69%29.80 "Hg10 mi
6:20 AM77 °FClear.6 mph69%29.80 "Hg10 mi
5:50 AM77 °FClear.6 mph69%29.80 "Hg10 mi
5:20 AM79 °FClear.8 mph70%29.80 "Hg10 mi
4:50 AM79 °FClear.8 mph70%29.80 "Hg10 mi
4:20 AM79 °FClear.8 mph70%29.80 "Hg10 mi
3:50 AM79 °FClear.8 mph70%29.80 "Hg10 mi
3:20 AM79 °FClear.8 mph70%29.80 "Hg10 mi
Weather by CustomWeather, © 2016

See weather overviewHow to use our weather pages